EW7401 Victoria CA current weather conditions

sailwx.info

Wind from 347

Air temperature 14.4° C
Dewpoint 13.0° C

Last reported at 2020-Aug-08 05:01 UTC.
Time now 2020-Aug-08 05:28 UTC

Location: N 48°27' W 123°15'.
View on Google Maps.

See reports from other nearby stations

  
Tides and Currents Weather Stations Pressure Air Temp Water Temp Dewpoint Dewpoint Depression Visibility Wind Speed Wind Dir Waves Ship Positions
date/time (UTC)wind fromknots sea level pressurealtimeterstation pressurevisibilityair tempwater tempwave heightnotes
2020-Aug-08 05:01 347 14.4
2020-Aug-08 04:56 347 14.4
2020-Aug-08 04:51 347 13.9
2020-Aug-08 04:46 347 13.9
2020-Aug-08 04:41 347 13.9
2020-Aug-08 04:36 347 13.9
2020-Aug-08 04:31 347 13.9
2020-Aug-08 04:26 347 14.4
2020-Aug-08 04:21 347 14.4
2020-Aug-08 04:16 348 14.4
2020-Aug-08 04:11 347 14.4
2020-Aug-08 04:06 348 14.4
2020-Aug-08 04:01 347 14.4
2020-Aug-08 03:56 346 14.4
2020-Aug-08 03:51 345 0 gusting 1 14.4
2020-Aug-08 03:46 338 1 gusting 2 14.4
2020-Aug-08 03:41 348 2 gusting 2 14.4
2020-Aug-08 03:36 347 1 gusting 4 14.4
2020-Aug-08 03:31 355 2 gusting 4 14.4
2020-Aug-08 03:26 349 3 gusting 5 14.4
2020-Aug-08 03:21 330 2 gusting 4 14.4
2020-Aug-08 03:16 327 2 gusting 5 14.4
2020-Aug-08 03:11 312 2 gusting 2 14.4
2020-Aug-08 03:06 318 2 gusting 4 14.4
2020-Aug-08 03:01 328 2 gusting 4 14.4
2020-Aug-08 02:56 310 2 gusting 5 14.4
2020-Aug-08 02:51 315 1 gusting 4 14.4
2020-Aug-08 02:46 319 2 gusting 4 14.4
2020-Aug-08 02:41 323 1 gusting 2 14.4
2020-Aug-08 02:36 325 1 gusting 2 14.4
2020-Aug-08 02:31 323 1 gusting 4 14.4
2020-Aug-08 02:26 342 1 gusting 2 15.0
2020-Aug-08 02:21 349 1 gusting 5 15.0
2020-Aug-08 02:16 014 2 gusting 4 15.0
2020-Aug-08 02:11 346 0 gusting 2 15.0
2020-Aug-08 02:06 348 0 gusting 1 15.0
2020-Aug-08 02:01 346 15.0
2020-Aug-08 01:56 347 0 gusting 2 15.0
2020-Aug-08 01:51 338 0 gusting 2 15.0
2020-Aug-08 01:46 340 0 gusting 2 15.6
2020-Aug-08 01:41 343 0 gusting 2 15.6
2020-Aug-08 01:36 328 0 gusting 2 15.6
2020-Aug-08 01:31 327 0 gusting 2 16.1
2020-Aug-08 01:26 322 16.1
2020-Aug-08 01:21 322 16.7
2020-Aug-08 01:16 318 1 gusting 2 16.7
2020-Aug-08 01:11 303 0 gusting 2 17.2
2020-Aug-08 01:06 278 0 gusting 2 17.2
2020-Aug-08 01:01 266 17.2
2020-Aug-08 00:56 258 17.2
2020-Aug-08 00:51 257 17.2
2020-Aug-08 00:46 258 0 gusting 2 17.2
2020-Aug-08 00:41 257 0 gusting 1 17.8
2020-Aug-08 00:36 258 17.8
2020-Aug-08 00:31 258 17.8
2020-Aug-08 00:26 258 17.8
2020-Aug-08 00:21 257 1 gusting 2 17.8
2020-Aug-08 00:16 262 1 gusting 2 17.8
2020-Aug-08 00:11 253 1 gusting 2 17.8
2020-Aug-08 00:06 250 1 gusting 2 17.8
2020-Aug-08 00:01 225 2 gusting 4 17.8
2020-Aug-07 23:56 231 2 gusting 2 18.3
2020-Aug-07 23:51 238 1 gusting 4 18.3
2020-Aug-07 23:46 216 1 gusting 4 18.3
2020-Aug-07 23:41 239 1 gusting 2 18.3
2020-Aug-07 23:36 217 1 gusting 5 18.3
2020-Aug-07 23:31 221 1 gusting 5 18.3
2020-Aug-07 23:26 225 2 gusting 5 18.3
2020-Aug-07 23:21 199 2 gusting 5 18.3
2020-Aug-07 23:16 204 4 gusting 6 18.3
2020-Aug-07 23:11 198 4 gusting 7 18.3
2020-Aug-07 23:06 185 6 gusting 8 18.3
2020-Aug-07 23:01 183 6 gusting 8 18.9
2020-Aug-07 22:56 183 6 gusting 10 18.9
2020-Aug-07 22:51 177 7 gusting 10 18.9
2020-Aug-07 22:46 178 6 gusting 10 19.4
2020-Aug-07 22:41 180 6 gusting 10 19.4
2020-Aug-07 22:36 181 6 gusting 8 19.4
2020-Aug-07 22:31 168 5 gusting 7 19.4
2020-Aug-07 22:26 175 5 gusting 8 19.4
2020-Aug-07 22:21 181 5 gusting 10 19.4
2020-Aug-07 22:16 179 6 gusting 10 19.4
2020-Aug-07 22:11 180 6 gusting 10 19.4
2020-Aug-07 22:06 166 6 gusting 10 19.4
2020-Aug-07 22:01 167 6 gusting 8 18.9
2020-Aug-07 21:56 173 5 gusting 10 18.9
2020-Aug-07 21:51 197 5 gusting 10 18.9
2020-Aug-07 21:46 161 8 gusting 12 18.9
2020-Aug-07 21:41 157 8 gusting 11 18.9
2020-Aug-07 21:36 162 8 gusting 10 18.9
2020-Aug-07 21:31 160 6 gusting 10 18.9
2020-Aug-07 21:26 160 7 gusting 10 18.9
2020-Aug-07 21:21 164 8 gusting 12 18.9
2020-Aug-07 21:16 162 8 gusting 13 18.9
2020-Aug-07 21:11 162 8 gusting 12 18.9
2020-Aug-07 21:06 164 9 gusting 13 18.9
2020-Aug-07 21:01 156 11 gusting 13 18.9
2020-Aug-07 20:56 159 7 gusting 11 18.3
2020-Aug-07 20:51 155 10 gusting 12 18.9
2020-Aug-07 20:46 158 10 gusting 13 18.9
2020-Aug-07 20:41 152 11 gusting 13 18.9
2020-Aug-07 20:36 164 8 gusting 12 19.4
2020-Aug-07 20:31 158 9 gusting 13 19.4
2020-Aug-07 20:26 157 8 gusting 11 19.4
2020-Aug-07 20:21 158 11 gusting 12 19.4
2020-Aug-07 20:16 159 8 gusting 11 19.4
2020-Aug-07 20:11 155 8 gusting 11 19.4
2020-Aug-07 20:06 155 8 gusting 13 20.0
2020-Aug-07 20:01 157 9 gusting 13 20.0
2020-Aug-07 19:56 165 8 gusting 13 20.0
2020-Aug-07 19:51 158 8 gusting 12 20.0
2020-Aug-07 19:46 163 8 gusting 11 20.0
2020-Aug-07 19:41 171 8 gusting 13 19.4
2020-Aug-07 19:36 156 10 gusting 12 18.9
2020-Aug-07 19:31 141 9 gusting 12 18.9
2020-Aug-07 19:26 147 8 gusting 12 18.9
2020-Aug-07 19:21 137 10 gusting 13 18.9
2020-Aug-07 19:16 133 11 gusting 13 18.9
2020-Aug-07 19:11 136 10 gusting 11 18.9
2020-Aug-07 19:06 137 8 gusting 10 18.9
2020-Aug-07 19:01 138 10 gusting 13 18.9
2020-Aug-07 18:56 155 7 gusting 11 18.9
2020-Aug-07 18:51 157 8 gusting 11 18.9
2020-Aug-07 18:46 159 8 gusting 10 19.4
2020-Aug-07 18:41 167 5 gusting 8 18.9
2020-Aug-07 18:36 166 4 gusting 6 18.3
2020-Aug-07 18:31 186 4 gusting 8 17.8
2020-Aug-07 18:26 176 5 gusting 8 17.2
2020-Aug-07 18:21 202 5 gusting 8 17.2
2020-Aug-07 18:16 189 5 gusting 10 16.7
2020-Aug-07 18:11 190 5 gusting 11 16.7
2020-Aug-07 18:06 183 7 gusting 14 16.7
2020-Aug-07 18:01 189 8 gusting 13 17.2
2020-Aug-07 17:56 187 8 gusting 11 17.2
2020-Aug-07 17:51 179 5 gusting 10 16.7
2020-Aug-07 17:46 177 7 gusting 12 16.1
2020-Aug-07 17:41 187 10 gusting 13 16.1
2020-Aug-07 17:36 179 8 gusting 13 16.1
2020-Aug-07 17:31 189 8 gusting 12 16.1
2020-Aug-07 17:26 184 9 gusting 12 15.6
2020-Aug-07 17:21 177 7 gusting 12 15.6
2020-Aug-07 17:16 179 7 gusting 11 15.6
2020-Aug-07 17:11 184 8 gusting 11 15.0
2020-Aug-07 17:06 178 7 gusting 11 15.0
2020-Aug-07 17:01 184 8 gusting 11 15.0
2020-Aug-07 16:56 181 6 gusting 10 15.0
2020-Aug-07 16:51 183 6 gusting 8 15.0
2020-Aug-07 16:46 188 5 gusting 10 15.0
2020-Aug-07 16:41 173 6 gusting 10 15.0
2020-Aug-07 16:36 174 6 gusting 10 15.0
2020-Aug-07 16:31 201 1 gusting 7 14.4
2020-Aug-07 16:26 205 4 gusting 10 14.4
2020-Aug-07 16:21 203 4 gusting 10 14.4
2020-Aug-07 16:16 199 4 gusting 8 14.4
2020-Aug-07 16:11 197 3 gusting 6 14.4
2020-Aug-07 16:06 204 2 gusting 10 14.4
2020-Aug-07 16:01 222 2 gusting 8 14.4
2020-Aug-07 15:56 210 5 gusting 10 13.9
2020-Aug-07 15:51 208 2 gusting 10 13.9
2020-Aug-07 15:46 210 6 gusting 12 13.9
2020-Aug-07 15:41 210 6 gusting 13 13.9
2020-Aug-07 15:36 200 2 gusting 7 13.3
2020-Aug-07 15:31 204 2 gusting 7 13.3
2020-Aug-07 15:26 223 3 gusting 7 13.3
2020-Aug-07 15:21 196 1 gusting 4 13.3
2020-Aug-07 15:16 214 1 gusting 4 12.8
2020-Aug-07 15:11 206 2 gusting 6 12.8
2020-Aug-07 15:06 194 3 gusting 6 12.8
2020-Aug-07 15:01 191 2 gusting 6 12.8
2020-Aug-07 14:56 204 4 gusting 8 12.8
2020-Aug-07 14:51 180 5 gusting 10 12.8
2020-Aug-07 14:46 183 5 gusting 8 12.8
2020-Aug-07 14:41 184 4 gusting 7 12.8
2020-Aug-07 14:36 176 5 gusting 10 12.8
2020-Aug-07 14:31 181 6 gusting 10 12.8
2020-Aug-07 14:26 176 6 gusting 10 12.8
2020-Aug-07 14:21 195 5 gusting 10 12.8
2020-Aug-07 14:16 170 6 gusting 10 13.3
2020-Aug-07 14:11 174 5 gusting 8 13.3
2020-Aug-07 14:06 171 3 gusting 6 13.3
2020-Aug-07 14:01 172 3 gusting 5 13.3
2020-Aug-07 13:56 160 4 gusting 6 13.3
2020-Aug-07 13:51 139 4 gusting 6 13.3
2020-Aug-07 13:46 141 5 gusting 7 13.3
2020-Aug-07 13:41 153 4 gusting 6 13.3
2020-Aug-07 13:36 129 3 gusting 5 13.3
2020-Aug-07 13:31 162 1 gusting 4 13.9
2020-Aug-07 13:26 181 0 gusting 2 13.9
2020-Aug-07 13:21 187 0 gusting 5 13.9
2020-Aug-07 13:16 179 0 gusting 4 13.9
2020-Aug-07 13:11 196 0 gusting 2 13.9
2020-Aug-07 13:06 188 0 gusting 2 13.9
2020-Aug-07 13:01 211 1 gusting 7 13.9
2020-Aug-07 12:56 221 1 gusting 5 13.9
2020-Aug-07 12:51 215 2 gusting 6 13.9
2020-Aug-07 12:46 231 3 gusting 6 13.9
2020-Aug-07 12:41 227 1 gusting 6 13.9
2020-Aug-07 12:36 227 2 gusting 10 13.9
2020-Aug-07 12:31 231 6 gusting 12 13.9
2020-Aug-07 12:26 246 3 gusting 8 13.9
2020-Aug-07 12:21 253 2 gusting 8 13.9
2020-Aug-07 12:16 261 3 gusting 8 13.9
2020-Aug-07 12:11 252 1 gusting 7 13.9
2020-Aug-07 12:06 247 5 gusting 10 13.9
2020-Aug-07 12:01 264 4 gusting 8 13.9
2020-Aug-07 11:56 269 1 gusting 6 13.9
2020-Aug-07 11:51 261 2 gusting 8 13.9
2020-Aug-07 11:46 247 2 gusting 10 14.4
2020-Aug-07 11:41 238 1 gusting 8 14.4
2020-Aug-07 11:36 249 6 gusting 10 14.4
2020-Aug-07 11:31 239 3 gusting 10 14.4
2020-Aug-07 11:26 249 4 gusting 12 14.4
2020-Aug-07 11:21 244 4 gusting 12 14.4
2020-Aug-07 11:16 255 5 gusting 11 14.4
2020-Aug-07 11:11 240 4 gusting 10 14.4
2020-Aug-07 11:06 267 1 gusting 10 14.4
2020-Aug-07 11:01 247 5 gusting 10 14.4
2020-Aug-07 10:56 235 1 gusting 8 14.4
2020-Aug-07 10:51 258 1 gusting 8 14.4
2020-Aug-07 10:46 250 1 gusting 5 14.4
2020-Aug-07 10:41 292 4 gusting 8 14.4
2020-Aug-07 10:36 254 2 gusting 8 14.4
2020-Aug-07 10:31 250 1 gusting 7 14.4
2020-Aug-07 10:26 274 0 gusting 6 14.4
2020-Aug-07 10:21 287 0 gusting 6 14.4
2020-Aug-07 10:16 262 2 gusting 7 14.4
2020-Aug-07 10:11 231 4 gusting 10 14.4
2020-Aug-07 10:06 255 5 gusting 11 14.4
2020-Aug-07 10:01 260 5 gusting 10 14.4
2020-Aug-07 09:56 239 3 gusting 10 14.4
2020-Aug-07 09:51 240 4 gusting 10 14.4
2020-Aug-07 09:46 263 4 gusting 7 15.0
2020-Aug-07 09:41 250 2 gusting 6 15.0
2020-Aug-07 09:36 233 2 gusting 7 15.0
2020-Aug-07 09:31 254 3 gusting 10 15.0
2020-Aug-07 09:26 225 4 gusting 10 15.0
2020-Aug-07 09:21 224 4 gusting 10 15.0
2020-Aug-07 09:16 227 3 gusting 8 15.0
2020-Aug-07 09:11 217 2 gusting 6 15.0
2020-Aug-07 09:06 241 4 gusting 7 15.0
2020-Aug-07 09:01 230 4 gusting 10 15.0
2020-Aug-07 08:56 240 4 gusting 10 15.0
2020-Aug-07 08:51 249 4 gusting 10 15.0
2020-Aug-07 08:46 249 3 gusting 8 15.0
2020-Aug-07 08:41 274 0 gusting 11 15.0
2020-Aug-07 08:36 235 3 gusting 10 15.0
2020-Aug-07 08:31 257 4 gusting 10 15.0
2020-Aug-07 08:26 256 3 gusting 7 15.0
2020-Aug-07 08:21 267 2 gusting 8 15.0
2020-Aug-07 08:16 221 2 gusting 8 15.0
2020-Aug-07 08:11 228 4 gusting 11 15.0
2020-Aug-07 08:06 234 5 gusting 26 15.0
2020-Aug-07 08:01 231 4 gusting 8 15.0
2020-Aug-07 07:56 225 3 gusting 7 15.0
2020-Aug-07 07:51 231 2 gusting 10 15.0
2020-Aug-07 07:46 222 2 gusting 5 15.0
2020-Aug-07 07:41 245 2 gusting 6 15.0
2020-Aug-07 07:36 205 2 gusting 5 15.0
2020-Aug-07 07:31 232 15.0
2020-Aug-07 07:26 231 2 gusting 6 15.0
2020-Aug-07 07:21 251 2 gusting 5 15.0
2020-Aug-07 07:16 219 1 gusting 6 15.0
2020-Aug-07 07:11 203 2 gusting 6 15.0
2020-Aug-07 07:06 241 2 gusting 8 15.0
2020-Aug-07 07:01 223 2 gusting 6 15.0
2020-Aug-07 06:56 237 2 gusting 6 15.0
2020-Aug-07 06:51 251 0 gusting 5 15.0
2020-Aug-07 06:46 258 1 gusting 5 15.0
2020-Aug-07 06:41 246 1 gusting 6 15.0
2020-Aug-07 06:36 253 2 gusting 6 15.0
2020-Aug-07 06:31 220 2 gusting 6 15.0
2020-Aug-07 06:26 182 0 gusting 4 15.0
2020-Aug-07 06:21 189 2 gusting 6 15.6
2020-Aug-07 06:16 200 1 gusting 5 15.6
2020-Aug-07 06:12 209 2 gusting 6 15.6
2020-Aug-07 06:06 229 1 gusting 6 15.6
2020-Aug-07 06:01 226 3 gusting 7 15.6
2020-Aug-07 05:56 235 3 gusting 10 15.6
2020-Aug-07 05:51 201 4 gusting 7 15.6
2020-Aug-07 05:46 240 3 gusting 6 16.1
2020-Aug-07 05:41 233 4 gusting 10 16.1
2020-Aug-07 05:36 230 3 gusting 7 16.1
2020-Aug-07 05:31 240 1 gusting 6 16.1
2020-Aug-07 05:26 230 3 gusting 7 16.1
2020-Aug-07 05:21 255 1 gusting 7 16.1
2020-Aug-07 05:16 254 2 gusting 6 16.1
2020-Aug-07 05:11 194 0 gusting 2 16.1
2020-Aug-07 05:06 232 0 gusting 7 16.1
2020-Aug-07 05:01 212 1 gusting 5 16.1
2020-Aug-07 04:56 223 1 gusting 6 16.1
2020-Aug-07 04:51 221 2 gusting 10 16.1
2020-Aug-07 04:46 248 5 gusting 13 16.1
2020-Aug-07 04:41 248 0 gusting 11 16.1
2020-Aug-07 04:36 254 6 gusting 15 16.1
2020-Aug-07 04:31 215 5 gusting 15 16.1
2020-Aug-07 04:26 255 5 gusting 14 16.1
2020-Aug-07 04:21 265 4 gusting 11 16.1
2020-Aug-07 04:16 237 5 gusting 14 16.1
2020-Aug-07 04:11 251 5 gusting 11 16.1
2020-Aug-07 04:06 254 4 gusting 11 16.1
2020-Aug-07 04:01 237 5 gusting 10 16.1
2020-Aug-07 03:56 242 4 gusting 13 16.7
2020-Aug-07 03:51 224 4 gusting 11 16.7
2020-Aug-07 03:46 257 3 gusting 8 16.7
2020-Aug-07 03:41 232 5 gusting 10 16.7
2020-Aug-07 03:36 210 7 gusting 13 16.7
2020-Aug-07 03:31 235 5 gusting 13 17.2
2020-Aug-07 03:26 239 5 gusting 12 17.2
2020-Aug-07 03:21 262 7 gusting 18 17.2
2020-Aug-07 03:16 274 5 gusting 11 17.2
2020-Aug-07 03:11 249 7 gusting 17 17.2
2020-Aug-07 03:06 244 10 gusting 17 17.2
2020-Aug-07 03:01 271 6 gusting 10 17.8
2020-Aug-07 02:56 243 5 gusting 8 17.8
2020-Aug-07 02:51 237 4 gusting 13 17.8
2020-Aug-07 02:46 242 8 gusting 17 17.8
2020-Aug-07 02:41 247 6 gusting 13 17.8
2020-Aug-07 02:36 251 5 gusting 14 17.8
2020-Aug-07 02:31 239 6 gusting 17 17.8
2020-Aug-07 02:26 253 8 gusting 17 17.8
2020-Aug-07 02:21 244 6 gusting 14 18.3
2020-Aug-07 02:16 252 7 gusting 19 18.3
2020-Aug-07 02:11 235 6 gusting 13 18.3
2020-Aug-07 02:06 258 10 gusting 17 18.3
2020-Aug-07 02:01 239 7 gusting 19 18.9
2020-Aug-07 01:56 251 7 gusting 20 18.9
2020-Aug-07 01:51 243 6 gusting 19 18.9
2020-Aug-07 01:46 237 6 gusting 17 18.9
2020-Aug-07 01:41 222 6 gusting 18 18.9
2020-Aug-07 01:36 267 11 gusting 19 18.9
2020-Aug-07 01:31 235 8 gusting 17 18.9
2020-Aug-07 01:26 260 9 gusting 24 19.4
2020-Aug-07 01:21 260 7 gusting 24 19.4
2020-Aug-07 01:16 249 7 gusting 19 19.4
2020-Aug-07 01:11 245 7 gusting 18 19.4
2020-Aug-07 01:06 231 7 gusting 19 20.0
2020-Aug-07 01:01 249 7 gusting 15 20.0
2020-Aug-07 00:56 232 7 gusting 17 20.0
2020-Aug-07 00:51 241 7 gusting 17 20.0
2020-Aug-07 00:46 237 6 gusting 18 20.0
2020-Aug-07 00:41 248 11 gusting 21 20.6
2020-Aug-07 00:36 261 7 gusting 19 20.6
2020-Aug-07 00:31 248 4 gusting 12 20.6
2020-Aug-07 00:26 263 7 gusting 15 20.6
2020-Aug-07 00:21 239 9 gusting 15 20.6
2020-Aug-07 00:16 247 5 gusting 17 20.6
2020-Aug-07 00:11 269 7 gusting 17 20.6
2020-Aug-07 00:06 242 8 gusting 15 20.6
2020-Aug-07 00:01 258 9 gusting 19 20.6
2020-Aug-06 23:56 260 10 gusting 22 20.6
2020-Aug-06 23:51 248 10 gusting 19 20.6
2020-Aug-06 23:46 263 8 gusting 19 20.0
2020-Aug-06 23:41 234 12 gusting 20 20.0
2020-Aug-06 23:36 248 4 gusting 18 20.0
2020-Aug-06 23:31 263 10 gusting 17 20.0
2020-Aug-06 23:26 216 8 gusting 21 20.0
2020-Aug-06 23:21 269 6 gusting 18 20.0
2020-Aug-06 23:16 257 8 gusting 22 20.6
2020-Aug-06 23:11 251 8 gusting 17 20.6
2020-Aug-06 23:06 244 6 gusting 19 20.6
2020-Aug-06 23:01 243 6 gusting 20 20.6
2020-Aug-06 22:56 260 8 gusting 18 20.6
2020-Aug-06 22:51 228 11 gusting 19 21.1
2020-Aug-06 22:46 259 9 gusting 19 21.1
2020-Aug-06 22:41 244 8 gusting 15 21.1
2020-Aug-06 22:36 241 11 gusting 20 20.6
2020-Aug-06 22:31 282 6 gusting 22 20.6
2020-Aug-06 22:26 249 7 gusting 19 20.6
2020-Aug-06 22:21 251 11 gusting 18 20.6
2020-Aug-06 22:16 232 8 gusting 19 20.6
2020-Aug-06 22:11 266 9 gusting 22 20.6
2020-Aug-06 22:06 250 7 gusting 22 20.6
2020-Aug-06 22:01 247 8 gusting 22 20.6
2020-Aug-06 21:56 240 10 gusting 18 21.1
2020-Aug-06 21:51 242 10 gusting 22 21.1
2020-Aug-06 21:46 248 8 gusting 17 21.1
2020-Aug-06 21:41 241 8 gusting 19 21.1
2020-Aug-06 21:36 239 6 gusting 14 21.1
2020-Aug-06 21:31 244 6 gusting 17 20.6
2020-Aug-06 21:26 243 8 gusting 22 20.6
2020-Aug-06 21:21 240 11 gusting 18 20.6
2020-Aug-06 21:16 254 10 gusting 21 20.6
2020-Aug-06 21:11 264 8 gusting 21 20.6
2020-Aug-06 21:06 238 7 gusting 17 20.6
2020-Aug-06 21:01 257 7 gusting 19 20.6
2020-Aug-06 20:56 257 10 gusting 18 20.6
2020-Aug-06 20:51 248 9 gusting 17 20.6
2020-Aug-06 20:46 254 5 gusting 20 20.6
2020-Aug-06 20:41 237 8 gusting 19 20.6
2020-Aug-06 20:36 257 10 gusting 20 20.0
2020-Aug-06 20:31 230 8 gusting 18 20.0
2020-Aug-06 20:26 233 10 gusting 19 20.0
2020-Aug-06 20:21 246 6 gusting 18 20.0
2020-Aug-06 20:16 247 9 gusting 22 20.0
2020-Aug-06 20:11 244 11 gusting 17 20.0
2020-Aug-06 20:06 266 12 gusting 20 20.0
2020-Aug-06 20:01 252 10 gusting 20 20.0
2020-Aug-06 19:56 259 11 gusting 19 20.0
2020-Aug-06 19:51 235 8 gusting 20 20.0
2020-Aug-06 19:46 249 11 gusting 18 20.0
2020-Aug-06 19:41 249 5 gusting 17 20.0
2020-Aug-06 19:36 249 8 gusting 20 19.4
2020-Aug-06 19:31 247 11 gusting 19 19.4
2020-Aug-06 19:26 252 9 gusting 19 19.4
2020-Aug-06 19:21 255 6 gusting 17 19.4
2020-Aug-06 19:16 261 6 gusting 19 19.4
2020-Aug-06 19:11 257 13 gusting 26 19.4
2020-Aug-06 19:06 250 7 gusting 19 19.4
2020-Aug-06 19:01 245 10 gusting 19 19.4
2020-Aug-06 18:56 245 6 gusting 14 19.4
2020-Aug-06 18:51 229 7 gusting 17 18.9
2020-Aug-06 18:46 255 8 gusting 15 18.9
2020-Aug-06 18:41 251 8 gusting 24 18.9
2020-Aug-06 18:36 258 6 gusting 15 18.9
2020-Aug-06 18:31 251 10 gusting 22 18.3
2020-Aug-06 18:26 248 10 gusting 20 18.3
2020-Aug-06 18:21 246 11 gusting 22 18.3
2020-Aug-06 18:16 236 10 gusting 22 18.3
2020-Aug-06 18:11 257 13 gusting 21 18.3
2020-Aug-06 18:06 233 6 gusting 15 18.3
2020-Aug-06 18:01 245 8 gusting 21 18.3
2020-Aug-06 17:56 248 11 gusting 22 18.3
2020-Aug-06 17:51 271 6 gusting 14 18.3
2020-Aug-06 17:46 260 7 gusting 17 17.8
2020-Aug-06 17:41 247 8 gusting 22 17.8
2020-Aug-06 17:36 247 8 gusting 20 17.8
2020-Aug-06 17:31 245 10 gusting 19 17.8
2020-Aug-06 17:26 261 6 gusting 17 17.8
2020-Aug-06 17:21 266 6 gusting 17 17.2
2020-Aug-06 17:16 251 5 gusting 14 17.2
2020-Aug-06 17:11 251 8 gusting 17 16.7
2020-Aug-06 17:06 266 6 gusting 17 16.7
2020-Aug-06 17:01 237 8 gusting 20 16.7
2020-Aug-06 16:56 258 5 gusting 12 16.7
2020-Aug-06 16:51 245 5 gusting 10 16.1
2020-Aug-06 16:46 254 4 gusting 13 16.1
2020-Aug-06 16:41 239 6 gusting 13 15.6
2020-Aug-06 16:36 274 6 gusting 13 15.6
2020-Aug-06 16:31 254 7 gusting 19 15.0
2020-Aug-06 16:26 259 5 gusting 17 15.0
2020-Aug-06 16:21 258 8 gusting 20 15.0
2020-Aug-06 16:16 260 5 gusting 13 14.4
2020-Aug-06 16:11 239 5 gusting 13 14.4
2020-Aug-06 16:06 246 4 gusting 10 14.4
2020-Aug-06 16:01 262 7 gusting 13 13.9
2020-Aug-06 15:56 236 4 gusting 12 13.9
2020-Aug-06 15:51 248 1 gusting 11 13.9
2020-Aug-06 15:46 230 2 gusting 14 13.9
2020-Aug-06 15:41 242 6 gusting 13 13.9
2020-Aug-06 15:36 269 1 gusting 7 13.9
2020-Aug-06 15:31 258 1 gusting 10 13.3
2020-Aug-06 15:26 233 2 gusting 8 13.3
2020-Aug-06 15:21 225 0 gusting 4 13.3
2020-Aug-06 15:16 252 0 gusting 5 13.3
2020-Aug-06 15:11 264 13.3
2020-Aug-06 15:06 243 1 gusting 8 13.3
2020-Aug-06 15:01 253 1 gusting 8 13.3
2020-Aug-06 14:56 227 3 gusting 10 13.3
2020-Aug-06 14:51 270 2 gusting 7 13.3
2020-Aug-06 14:46 234 1 gusting 7 13.3
2020-Aug-06 14:41 225 3 gusting 7 13.3
2020-Aug-06 14:36 237 2 gusting 8 13.3
2020-Aug-06 14:31 265 0 gusting 8 12.8
2020-Aug-06 14:26 215 1 gusting 4 12.8
2020-Aug-06 14:21 230 2 gusting 7 12.8
2020-Aug-06 14:16 255 1 gusting 8 12.8
2020-Aug-06 14:11 250 0 gusting 10 12.8
2020-Aug-06 14:06 265 4 gusting 10 13.3
2020-Aug-06 14:01 252 5 gusting 11 13.3
2020-Aug-06 13:56 247 1 gusting 10 13.3
2020-Aug-06 13:51 259 4 gusting 10 13.3
2020-Aug-06 13:46 266 4 gusting 12 13.3
2020-Aug-06 13:41 235 4 gusting 13 13.3
2020-Aug-06 13:36 254 5 gusting 14 13.3
2020-Aug-06 13:31 265 4 gusting 12 13.3
2020-Aug-06 13:26 247 6 gusting 13 13.3
2020-Aug-06 13:21 255 2 gusting 12 13.3
2020-Aug-06 13:16 259 3 gusting 10 13.3
2020-Aug-06 13:11 262 2 gusting 10 13.3
2020-Aug-06 13:06 259 1 gusting 5 13.3
2020-Aug-06 13:01 243 1 gusting 6 13.3
2020-Aug-06 12:56 232 0 gusting 7 13.3
2020-Aug-06 12:51 223 2 gusting 6 13.9
2020-Aug-06 12:46 237 1 gusting 5 13.3
2020-Aug-06 12:41 227 1 gusting 6 13.3
2020-Aug-06 12:36 223 1 gusting 6 13.3
2020-Aug-06 12:31 234 1 gusting 2 13.3
2020-Aug-06 12:26 215 2 gusting 6 13.3
2020-Aug-06 12:21 222 2 gusting 7 13.3
2020-Aug-06 12:16 210 2 gusting 7 13.3
2020-Aug-06 12:11 214 4 gusting 7 13.3
2020-Aug-06 12:06 234 1 gusting 4 13.3
2020-Aug-06 12:01 251 3 gusting 6 13.3
2020-Aug-06 11:56 231 0 gusting 2 13.3
2020-Aug-06 11:51 218 2 gusting 5 13.3
2020-Aug-06 11:46 219 2 gusting 6 13.3
2020-Aug-06 11:41 219 1 gusting 6 13.9
2020-Aug-06 11:36 221 3 gusting 10 13.9
2020-Aug-06 11:31 215 4 gusting 8 14.4
2020-Aug-06 11:26 209 4 gusting 10 14.4
2020-Aug-06 11:21 216 3 gusting 8 14.4
2020-Aug-06 11:16 216 4 gusting 10 14.4
2020-Aug-06 11:11 197 5 gusting 10 14.4
2020-Aug-06 11:06 190 4 gusting 7 14.4
2020-Aug-06 11:01 196 4 gusting 8 14.4
2020-Aug-06 10:56 216 1 gusting 7 14.4
2020-Aug-06 10:51 202 2 gusting 5 14.4
2020-Aug-06 10:46 204 3 gusting 6 15.0
2020-Aug-06 10:41 206 1 gusting 5 15.0
2020-Aug-06 10:36 228 3 gusting 8 15.0
2020-Aug-06 10:31 217 4 gusting 8 15.0
2020-Aug-06 10:26 220 3 gusting 6 15.0
2020-Aug-06 10:21 219 3 gusting 10 15.0
2020-Aug-06 10:16 222 4 gusting 10 15.0
2020-Aug-06 10:11 214 3 gusting 7 15.0
2020-Aug-06 10:06 207 4 gusting 8 15.0
2020-Aug-06 10:01 224 5 gusting 8 15.0
2020-Aug-06 09:56 207 6 gusting 11 15.0
2020-Aug-06 09:51 199 6 gusting 10 15.0
2020-Aug-06 09:46 203 5 gusting 12 15.0
2020-Aug-06 09:41 188 6 gusting 10 15.0
2020-Aug-06 09:36 187 6 gusting 11 14.4
2020-Aug-06 09:31 187 6 gusting 10 14.4
2020-Aug-06 09:26 189 4 gusting 10 14.4
2020-Aug-06 09:21 208 3 gusting 6 14.4
2020-Aug-06 09:16 212 3 gusting 6 14.4
2020-Aug-06 09:11 226 4 gusting 8 13.9
2020-Aug-06 09:06 227 5 gusting 11 13.9
2020-Aug-06 09:01 255 2 gusting 10 13.9
2020-Aug-06 08:56 220 1 gusting 8 13.9
2020-Aug-06 08:51 224 3 gusting 7 13.9
2020-Aug-06 08:46 215 2 gusting 8 13.9
2020-Aug-06 08:41 211 4 gusting 8 13.9
2020-Aug-06 08:36 214 4 gusting 10 14.4
2020-Aug-06 08:31 220 2 gusting 7 14.4
2020-Aug-06 08:26 225 4 gusting 11 15.0
2020-Aug-06 08:21 217 5 gusting 11 15.0
2020-Aug-06 08:16 196 7 gusting 12 16.1
2020-Aug-06 08:11 208 5 gusting 12 17.2
2020-Aug-06 08:06 208 5 gusting 19 18.3
2020-Aug-06 08:01 211 4 gusting 10 18.3
2020-Aug-06 07:56 220 2 gusting 8 18.3
2020-Aug-06 07:51 220 1 gusting 6 18.3
2020-Aug-06 07:46 200 2 gusting 8 18.3
2020-Aug-06 07:41 225 0 gusting 6 18.3
2020-Aug-06 07:36 215 0 gusting 2 18.3
2020-Aug-06 07:31 266 1 gusting 7 18.3
2020-Aug-06 07:26 295 18.3
2020-Aug-06 07:21 333 18.3
2020-Aug-06 07:16 333 18.3
2020-Aug-06 07:11 334 18.3
2020-Aug-06 07:06 333 18.3
2020-Aug-06 07:01 333 18.3
2020-Aug-06 06:56 294 18.3
2020-Aug-06 06:51 294 18.3
2020-Aug-06 06:46 292 18.3
2020-Aug-06 06:41 244 2 gusting 5 18.3
2020-Aug-06 06:36 286 0 gusting 8 18.3
2020-Aug-06 06:31 264 5 gusting 10 18.3
2020-Aug-06 06:26 263 3 gusting 10 18.3
2020-Aug-06 06:21 248 2 gusting 11 18.9
2020-Aug-06 06:16 266 4 gusting 11 18.9
2020-Aug-06 06:11 240 4 gusting 11 18.9
2020-Aug-06 06:06 234 5 gusting 12 18.9
2020-Aug-06 06:01 272 6 gusting 10 18.9
2020-Aug-06 05:56 263 4 gusting 12 18.9
2020-Aug-06 05:51 275 2 gusting 11 18.9
2020-Aug-06 05:46 266 4 gusting 10 18.9
2020-Aug-06 05:41 271 4 gusting 10 18.9
2020-Aug-06 05:36 269 2 gusting 11 18.9
2020-Aug-06 05:31 258 4 gusting 13 18.9
2020-Aug-06 05:26 237 3 gusting 10 18.9
2020-Aug-06 05:21 312 3 gusting 10 18.9
2020-Aug-06 05:16 243 3 gusting 10 18.9
2020-Aug-06 05:11 226 18.9
2020-Aug-06 05:06 233 2 gusting 10 18.9
2020-Aug-06 05:01 262 2 gusting 10 18.9